Location: Barcelona
(41.3830°N, 2.1830°E)
Time: 22:53:19
(UTC+02:00)

ISS - Pass Details

Date: 23 July 2017
Orbit: 400 x 408 km, 51.6° (Epoch: 24 July)

Event Time Altitude Azimuth Distance (km) Brightness Sun altitude
Rises 01:49:10 0° 291° (WNW) 2,310 0.3 -28.5°
Reaches altitude 10° 01:51:58 10° 318° (NW) 1,453 -0.5 -28.5°
Maximum altitude 01:53:50 14° 353° (N) 1,221 -0.6 -28.5°
Drops below altitude 10° 01:55:43 10° 28° (NNE) 1,455 -0.3 -28.5°
Sets 01:58:32 0° 55° (NE) 2,316 0.5 -28.5°
